Location: Pebble Beach Sunset Acres
(33.0837°N, 96.4508°W)
Time: 07:31:18
(UTC+00:00)

Cosmos 2297 Rocket - Visible Passes

Search period start: 26 June 2022 00:00
Search period end: 06 July 2022 00:00
Orbit: 840 x 842 km, 71.0° (Epoch: 25 June)

Date Brightness Start Highest point End Pass type
(mag) Time Alt. Az. Time Alt. Az. Time Alt. Az.
26 Jun 3.7 09:11:50 15° SSE 09:15:39 30° ESE 09:20:30 10° NE visible
27 Jun 3.7 08:57:27 18° SSE 09:00:31 28° ESE 09:05:16 10° NE visible
27 Jun 3.2 10:39:24 10° SW 10:44:23 32° WNW 10:49:24 10° N visible
28 Jun 3.8 08:43:02 20° SE 08:45:22 27° ESE 08:50:01 10° NE visible
28 Jun 3.1 10:24:52 13° WSW 10:29:12 34° WNW 10:34:18 10° N visible
29 Jun 3.8 08:28:34 22° SE 08:30:14 25° ESE 08:34:45 10° NE visible
29 Jun 3.0 10:10:23 18° WSW 10:14:01 36° WNW 10:19:10 10° N visible
30 Jun 3.8 08:14:03 22° ESE 08:15:06 24° ESE 08:19:29 10° NE visible
30 Jun 2.9 09:55:52 22° WSW 09:58:50 38° WNW 10:04:04 10° N visible
01 Jul 3.9 07:59:29 22° ESE 07:59:59 22° E 08:04:12 10° NE visible
01 Jul 2.9 09:41:18 27° WSW 09:43:40 40° WNW 09:48:57 10° N visible
02 Jul 4.0 07:44:53 21° E 07:44:53 21° E 07:48:55 10° NE visible
02 Jul 2.8 09:26:42 33° WSW 09:28:29 42° WNW 09:33:50 10° N visible
03 Jul 4.1 07:30:15 19° E 07:30:15 19° E 07:33:37 10° NE visible
03 Jul 2.7 09:12:03 39° W 09:13:19 45° WNW 09:18:43 10° N visible
04 Jul 4.2 07:15:34 17° E 07:15:34 17° E 07:18:18 10° ENE visible
04 Jul 2.5 08:57:23 45° W 08:58:09 48° WNW 09:03:35 10° N visible
05 Jul 4.4 07:00:51 16° E 07:00:51 16° E 07:02:58 10° ENE visible
05 Jul 2.5 08:42:40 50° WNW 08:42:58 51° WNW 08:48:29 10° N visible
